When you browse on this site, cookies collect data to enhance your experience and personalize the content and advertising you see.
Visit our Privacy Policy to learn more. By continuing to use the site, you agree to this use of cookies and data.
  • în România
  • Lista ţărilor
  • Pe 7 zile
  • Temperatura apei
  • Hartă satelitară
  • Meteo pe hartă
  • Widget-uri
  • user-avatar
    Intrare

    Meteo pe oră la Arnara

    Astăzi, 18 Februarie, Luni

    Timp Temperatura Precipitaţii Vânt Presiune Umiditate
    00:00 +8°C° 0 mm 1 m/s 753 mmHg 79%
    01:00 +8°C° 0 mm 1 m/s 753 mmHg 77%
    02:00 +8°C° 0 mm 1 m/s 753 mmHg 77%
    03:00 +7°C° 0 mm 1 m/s 752 mmHg 76%
    04:00 +7°C° 0 mm 1 m/s 752 mmHg 75%
    05:00 +7°C° 0 mm 1 m/s 752 mmHg 74%
    06:00 +7°C° 0 mm 1 m/s 752 mmHg 73%
    07:00 +7°C° 0 mm 1 m/s 752 mmHg 74%
    08:00 +9°C° 0 mm 1 m/s 752 mmHg 69%
    09:00 +11°C° 0 mm 1 m/s 752 mmHg 63%
    10:00 +12°C° 0 mm 0 m/s 752 mmHg 58%
    11:00 +14°C° 0 mm 1 m/s 752 mmHg 57%
    12:00 +15°C° 0 mm 1 m/s 751 mmHg 55%
    13:00 +16°C° 0 mm 1 m/s 752 mmHg 56%
    14:00 +15°C° 0 mm 2 m/s 751 mmHg 59%
    15:00 +15°C° 0 mm 2 m/s 751 mmHg 62%
    16:00 +15°C° 0 mm 2 m/s 750 mmHg 65%
    17:00 +13°C° 0 mm 1 m/s 750 mmHg 73%
    18:00 +11°C° 0 mm 1 m/s 750 mmHg 81%
    19:00 +8°C° 0 mm 0 m/s 750 mmHg 88%
    20:00 +8°C° 0 mm 0 m/s 750 mmHg 89%
    21:00 +7°C° 0 mm 0 m/s 750 mmHg 89%
    22:00 +8°C° 0 mm 1 m/s 750 mmHg 89%
    23:00 +7°C° 0 mm 0 m/s 750 mmHg 89%

    Mâine, 19 Februarie, Marţi

    Timp Temperatura Precipitaţii Vânt Presiune Umiditate
    00:00 +7°C° 0 mm 0 m/s 750 mmHg 89%
    01:00 +6°C° 0 mm 0 m/s 750 mmHg 88%
    02:00 +6°C° 0 mm 0 m/s 750 mmHg 88%
    03:00 +6°C° 0 mm 0 m/s 750 mmHg 89%
    04:00 +6°C° 0 mm 0 m/s 750 mmHg 89%
    05:00 +6°C° 0 mm 0 m/s 750 mmHg 88%
    06:00 +5°C° 0 mm 0 m/s 750 mmHg 88%
    07:00 +5°C° 0 mm 0 m/s 750 mmHg 88%
    08:00 +8°C° 0 mm 1 m/s 750 mmHg 81%
    09:00 +10°C° 0 mm 1 m/s 750 mmHg 74%
    10:00 +12°C° 0 mm 1 m/s 750 mmHg 67%
    11:00 +13°C° 0 mm 1 m/s 750 mmHg 64%
    12:00 +14°C° 0 mm 1 m/s 750 mmHg 61%
    13:00 +15°C° 0 mm 2 m/s 750 mmHg 58%
    14:00 +14°C° 0 mm 2 m/s 750 mmHg 61%
    15:00 +14°C° 0 mm 2 m/s 749 mmHg 63%
    16:00 +14°C° 0 mm 2 m/s 749 mmHg 65%
    17:00 +12°C° 0 mm 1 m/s 749 mmHg 73%
    18:00 +10°C° 0 mm 1 m/s 750 mmHg 81%
    19:00 +7°C° 0 mm 0 m/s 750 mmHg 89%
    20:00 +7°C° 0 mm 0 m/s 750 mmHg 89%
    21:00 +7°C° 0 mm 0 m/s 750 mmHg 90%
    22:00 +8°C° 0 mm 1 m/s 750 mmHg 90%
    23:00 +7°C° 0 mm 1 m/s 750 mmHg 89%

    Poimâine, 20 Februarie, Miercuri

    Timp Temperatura Precipitaţii Vânt Presiune Umiditate
    00:00 +7°C° 0 mm 1 m/s 750 mmHg 89%
    01:00 +7°C° 0 mm 1 m/s 750 mmHg 89%
    02:00 +7°C° 0 mm 1 m/s 750 mmHg 88%
    03:00 +7°C° 0 mm 1 m/s 750 mmHg 88%
    04:00 +7°C° 0 mm 1 m/s 750 mmHg 88%
    05:00 +7°C° 0 mm 1 m/s 750 mmHg 87%
    06:00 +6°C° 0 mm 1 m/s 750 mmHg 87%
    07:00 +6°C° 0 mm 1 m/s 750 mmHg 86%
    08:00 +9°C° 0 mm 1 m/s 751 mmHg 79%
    09:00 +10°C° 0 mm 0 m/s 751 mmHg 71%
    10:00 +12°C° 0 mm 0 m/s 752 mmHg 63%
    11:00 +14°C° 0 mm 1 m/s 752 mmHg 60%
    12:00 +15°C° 0 mm 1 m/s 752 mmHg 56%
    13:00 +16°C° 0 mm 2 m/s 752 mmHg 52%
    14:00 +15°C° 0 mm 2 m/s 751 mmHg 54%
    15:00 +15°C° 0 mm 2 m/s 751 mmHg 56%
    16:00 +15°C° 0 mm 2 m/s 751 mmHg 58%
    17:00 +13°C° 0 mm 1 m/s 752 mmHg 66%
    18:00 +11°C° 0 mm 1 m/s 752 mmHg 74%
    19:00 +8°C° 0 mm 0 m/s 752 mmHg 82%
    20:00 +9°C° 0 mm 1 m/s 752 mmHg 83%
    21:00 +9°C° 0 mm 1 m/s 752 mmHg 83%
    22:00 +9°C° 0 mm 1 m/s 753 mmHg 83%
    23:00 +9°C° 0 mm 1 m/s 753 mmHg 83%

    21 Februarie, Joi

    Timp Temperatura Precipitaţii Vânt Presiune Umiditate
    00:00 +8°C° 0 mm 1 m/s 753 mmHg 83%
    01:00 +8°C° 0 mm 1 m/s 753 mmHg 83%
    02:00 +8°C° 0 mm 1 m/s 753 mmHg 83%
    03:00 +8°C° 0 mm 1 m/s 753 mmHg 83%
    04:00 +8°C° 0 mm 1 m/s 753 mmHg 82%
    05:00 +8°C° 0 mm 1 m/s 753 mmHg 82%
    06:00 +7°C° 0 mm 1 m/s 753 mmHg 82%
    07:00 +7°C° 0 mm 1 m/s 753 mmHg 81%
    08:00 +10°C° 0 mm 1 m/s 754 mmHg 74%
    09:00 +12°C° 0 mm 1 m/s 754 mmHg 67%
    10:00 +14°C° 0 mm 1 m/s 754 mmHg 60%
    11:00 +15°C° 0 mm 1 m/s 754 mmHg 57%
    12:00 +15°C° 0 mm 1 m/s 754 mmHg 54%
    13:00 +16°C° 0 mm 2 m/s 754 mmHg 51%
    14:00 +16°C° 0 mm 2 m/s 754 mmHg 52%
    15:00 +16°C° 0 mm 2 m/s 754 mmHg 53%
    16:00 +16°C° 0 mm 2 m/s 754 mmHg 54%
    17:00 +14°C° 0 mm 1 m/s 754 mmHg 62%
    18:00 +12°C° 0 mm 1 m/s 754 mmHg 70%
    19:00 +10°C° 0 mm 1 m/s 754 mmHg 77%
    20:00 +10°C° 0 mm 1 m/s 754 mmHg 77%
    21:00 +9°C° 0 mm 1 m/s 755 mmHg 77%
    22:00 +9°C° 0 mm 1 m/s 755 mmHg 77%
    23:00 +9°C° 0 mm 1 m/s 755 mmHg 76%

    22 Februarie, Vineri

    Timp Temperatura Precipitaţii Vânt Presiune Umiditate
    00:00 +9°C° 0 mm 1 m/s 755 mmHg 76%
    01:00 +9°C° 0 mm 1 m/s 755 mmHg 75%
    02:00 +9°C° 0 mm 1 m/s 754 mmHg 74%
    03:00 +9°C° 0 mm 1 m/s 754 mmHg 73%
    04:00 +9°C° 0 mm 1 m/s 754 mmHg 72%
    05:00 +8°C° 0 mm 1 m/s 754 mmHg 71%
    06:00 +8°C° 0 mm 1 m/s 754 mmHg 71%
    07:00 +8°C° 0 mm 1 m/s 754 mmHg 70%
    08:00 +11°C° 0 mm 1 m/s 754 mmHg 63%
    09:00 +13°C° 0 mm 1 m/s 755 mmHg 55%
    10:00 +15°C° 0 mm 1 m/s 755 mmHg 48%
    11:00 +16°C° 0 mm 1 m/s 755 mmHg 46%
    12:00 +19°C° 0 mm 1 m/s 755 mmHg 43%
    13:00 +20°C° 0 mm 1 m/s 755 mmHg 41%
    14:00 +19°C° 0 mm 1 m/s 754 mmHg 43%
    15:00 +19°C° 0 mm 1 m/s 754 mmHg 46%
    16:00 +19°C° 0 mm 1 m/s 754 mmHg 48%
    17:00 +16°C° 0 mm 1 m/s 754 mmHg 54%
    18:00 +14°C° 0 mm 1 m/s 754 mmHg 61%
    19:00 +12°C° 0 mm 2 m/s 755 mmHg 67%
    20:00 +10°C° 0 mm 2 m/s 755 mmHg 64%
    21:00 +10°C° 0 mm 2 m/s 755 mmHg 62%
    22:00 +10°C° 0 mm 2 m/s 755 mmHg 60%
    23:00 +9°C° 0 mm 2 m/s 755 mmHg 61%

    23 Februarie, Sâmbătă

    Timp Temperatura Precipitaţii Vânt Presiune Umiditate
    00:00 +9°C° 0 mm 2 m/s 755 mmHg 62%
    01:00 +9°C° 0 mm 2 m/s 755 mmHg 63%
    02:00 +8°C° 0 mm 2 m/s 755 mmHg 66%
    03:00 +8°C° 0 mm 2 m/s 755 mmHg 68%
    04:00 +7°C° 0 mm 3 m/s 755 mmHg 70%
    05:00 +7°C° 0 mm 3 m/s 755 mmHg 71%
    06:00 +6°C° 0 mm 2 m/s 755 mmHg 72%
    07:00 +6°C° 0 mm 2 m/s 755 mmHg 73%
    08:00 +8°C° 0 mm 2 m/s 755 mmHg 61%
    09:00 +10°C° 0 mm 2 m/s 756 mmHg 50%
    10:00 +11°C° 0 mm 3 m/s 756 mmHg 38%
    11:00 +14°C° 0 mm 2 m/s 756 mmHg 34%
    12:00 +15°C° 0 mm 2 m/s 756 mmHg 30%
    13:00 +16°C° 0 mm 2 m/s 756 mmHg 25%
    14:00 +16°C° 0 mm 2 m/s 756 mmHg 27%
    15:00 +16°C° 0 mm 2 m/s 756 mmHg 28%
    16:00 +15°C° 0 mm 2 m/s 756 mmHg 29%
    17:00 +13°C° 0 mm 2 m/s 756 mmHg 34%
    18:00 +10°C° 0 mm 2 m/s 756 mmHg 38%
    19:00 +8°C° 0 mm 2 m/s 756 mmHg 43%
    20:00 +7°C° 0 mm 2 m/s 756 mmHg 44%
    21:00 +7°C° 0 mm 2 m/s 756 mmHg 45%
    22:00 +5°C° 0 mm 3 m/s 756 mmHg 46%
    23:00 +5°C° 0 mm 3 m/s 756 mmHg 43%
    Arată mai mult